{"data":{"norad_id":68021,"epoch":"2026-05-24T20:25:09.329952Z","epoch_age_seconds":80897,"freshness":"FRESH","line1":"1 68021U 26040G   26144.85080243  .00015301  00000+0  47514-3 0  9999","line2":"2 68021  97.2849  93.8540 0001726  93.3347 266.8094 15.33455957 13165","mean_motion":15.33455957,"eccentricity":0.0001726,"inclination_deg":97.2849,"raan_deg":93.854,"arg_perigee_deg":93.3347,"mean_anomaly_deg":266.8094,"bstar":0.00047514,"rev_number":1316,"period_min":93.905533669005,"perigee_km":464.32936077782,"apogee_km":466.69178792049,"semimajor_km":6843.6475743492,"source":"CELESTRAK","updated_at":"2026-05-25T13:38:21.805445Z"}}